Miscellaneous Local Product
Issued by NWS North Platte, NE

Home | Current Version | Previous Version | Text Only | Print | Product List | Glossary On
Versions: 1 2 3 4 5 6 7 8 9 10 11 12 13 14 15 16 17 18 19 20 21 22 23 24 25 26 27 28 29 30 31 32 33 34 35 36 37 38 39 40 41 42 43 44 45 46 47 48 49 50
010
AXUS43 KLBF 221710
MISLBF


WESTERN AND NORTH CENTRAL NEBRASKA HOURLY WEATHER ROUNDUP
NATIONAL WEATHER SERVICE NORTH PLATTE NE
1200 PM CDT MON MAY 22 2017

NOTE: "FAIR" INDICATES FEW OR NO CLOUDS BELOW 12,000 FEET WITH NO
SIGNIFICANT WEATHER AND/OR OBSTRUCTIONS TO VISIBILITY.

NOTE: STATIONS NOT REPORTING VARIABLES SUCH AS SKY/WEATHER OR
PRESSURE ARE PROVIDED BY RAWS AND APRS NETWORKS AND ARE NOT UNDER
NATIONAL WEATHER SERVICE QUALITY CONTROL.

...OBSERVATIONS IN AND NEAR THE EASTERN PANHANDLE OF NEBRASKA...

CITY           SKY/WX    TMP DP  RH WIND       PRES   REMARKS
PINE RIDGE     MOSUNNY   59  43  55 NW9       30.03F
GORDON         FAIR      59  42  54 N13G21    30.03S
CHADRON        PTSUNNY   59  44  57 NW12      30.03F
ALLIANCE       CLOUDY    59  40  49 NW21G31   30.05F
SIDNEY         MOSUNNY   62  39  42 NW18G29   30.09S
CRESCENT LAKE    N/A     59  40  48 N13G20      N/A
$$

...OBSERVATIONS IN NORTHERN NEBRASKA AND FAR SOUTHERN SOUTH DAKOTA...

CITY           SKY/WX    TMP DP  RH WIND       PRES   REMARKS
WINNER         FAIR      61  49  64 NW14      29.96F
VALENTINE      PTSUNNY   55  48  77 W8        30.00F
THEDFORD       CLOUDY    61  44  52 N14       30.02S
AINSWORTH      DRIZZLE   53  48  83 W10       30.01F
O`NEILL        MOSUNNY   61  44  52 NW14G20   29.96S
ORD            SUNNY     68  45  43 NW13G18   29.93F
BROKEN BOW     SUNNY     68  44  42 NW15G25   29.97F
VALENTINE NWR    N/A     55  43  65 NW13        N/A
HALSEY           N/A     63  43  48 NW6G13      N/A
BUTTE            N/A     56  47  70 N15         N/A
CHAMBERS         N/A     68  46  44 N5          N/A
EWING            N/A     66  51  58 W12         N/A
$$

...OBSERVATIONS IN SOUTHWEST NEBRASKA AND FAR NORTHEAST COLORADO...

CITY           SKY/WX    TMP DP  RH WIND       PRES   REMARKS
WRAY           FAIR      66  39  37 NW14G23   30.08F
IMPERIAL       SUNNY     67  37  33 NW17      30.04F
OGALLALA       PTSUNNY   64  39  39 NW15G25   30.03F
NORTH PLATTE   SUNNY     68  44  42 W16       30.00F
MCCOOK         SUNNY     69  46  43 W10       30.02F
LEXINGTON      SUNNY     68  46  45 NW13G18   29.99F
STAPLETON        N/A     63  45  51 CALM        N/A
GOTHENBURG       N/A     65  43  44 NW7         N/A
CALLAWAY         N/A     65  50  58 NW17        N/A
$$

...OBSERVATIONS IN CENTRAL LINCOLN COUNTY AREA...

CITY           SKY/WX    TMP DP  RH WIND       PRES   REMARKS
N.P. AIRPORT   SUNNY     68  44  42 W16       30.00F
N.P. DOWNTOWN    N/A     68  43  40 W6G13       N/A
N.P. SOUTHEAST   N/A     68  41  37 W7G15       N/A
N.P. HILLCREST   N/A     66  45  47 W14         N/A
$$

...SOME OBSERVATIONS FROM AROUND THE REGION...

CITY           SKY/WX    TMP DP  RH WIND       PRES   REMARKS
DENVER         MOSUNNY   62  32  32 N13G22    30.17F
LIMON          MOSUNNY   59  38  45 NW13G22   30.16F
ASPEN          MOSUNNY   52  29  41 VRB5      30.27F
LARAMIE        CLOUDY    53  29  39 NW25G32   30.18F
CASPER         LGT RAIN  49  40  71 NE14G32   30.16R
CHEYENNE       SUNNY     56  31  38 NW20G33   30.15F
SCOTTSBLUFF    CLOUDY    57  42  57 NW13      30.09F
GRAND ISLAND   SUNNY     69  45  41 NW12      29.97F
OMAHA          CLOUDY    70  49  47 SW9       29.92F
SIOUX FALLS    PTSUNNY   62  52  69 W10       29.88S
PIERRE         CLOUDY    57  47  69 NW17      29.92S
RAPID CITY     MOSUNNY   60  41  49 N22G30    30.00F
BISMARCK       PTSUNNY   62  38  40 NW16      29.97R
KANSAS CITY    CLOUDY    61  57  87 SW6       30.04F
HILL CITY      CLOUDY    61  52  72 NW5       30.05F
WICHITA        CLOUDY    64  53  67 W12       30.05F
DODGE CITY     RAIN      57  54  89 W12       30.07S FOG
OKLAHOMA CITY  CLOUDY    66  51  58 S10       30.07F
DALLAS         MOSUNNY   75  60  59 VRB6      30.05F
AMARILLO       CLOUDY    65  50  58 S10       30.10F
$$




USA.gov is the U.S. government's official web portal to all federal, state and local government web resources and services.